Location: Newark
(25.4800°N, 85.7200°E)
Time: 11:52:41
(UTC+00:00)

Explorer 11/Cluster Stage 4 - Pass Details

Date: 21 August 2019
Orbit: 467 x 1260 km, 28.8° (Epoch: 23 September)

Event Time Altitude Azimuth Distance (km) Brightness Sun altitude
Rises 08:26:23 0° 280° (W) 4,147 10.7 57.5°
Reaches altitude 10° 08:29:27 10° 282° (WNW) 3,121 10.3 56.8°
Maximum altitude 08:37:15 71° 5° (N) 1,118 8.2 55.1°
Drops below altitude 10° 08:43:42 10° 90° (E) 2,606 9.0 53.7°
Sets 08:46:04 0° 92° (E) 3,429 9.5 53.2°
